Hauptseite
METAR-TAF:

METAR-TAF

Flughäfen :

Bohrplattform

Euro, Niederlande

Breite: 51-59-52N, Länge: 3-16-30E, Höhe: 18 m

Beobachtung

Neuester Wetterbericht von vor 22 Minuten, um 10:55 UTC
Wind 9 kt aus Nord/Nordost
Temperatur 18°C
Luftfeuchtigkeit 88%
Luftdruck 1020 hPa

METAR: EHSA 191055Z AUTO 02009KT //// // ///////// 18/16 Q1020 RE// W17/H4

Zeit: 13:17 (11:17 UTC)


TAF: fehlend

Wetterbeobachtungen und Prognosen von mehr als 4000 Flughäfen (METAR und TAF Bericht).

Die verfügbaren Stationen werden durch gelbe und rote Markierungen auf der Karte dargestellt.

Führen Sie die Maus auf sie, um den Namen der Station zu sehen.

Darauf klicken, um die Beobachtung von Wetterbeobachtungen und Prognosen zu sehen.

Um die Karte zu ändern : klicken Sie auf den grünen Tasten mit einem schwarzen Kreuz Zum Vergrößern, auf den grünen Button mit einem Gedankenstrich zu verkleinern, oder auf die grünen Pfeile für benachbarte Karten.


METAR-TAF: